Flag for Brazil Weather past 2 weeks in Niterói, Rio de Janeiro, Brazil

Now
88 °F

Scattered clouds.


Feels Like: 94 °F
Forecast: 73 / 82 °F
Wind: 13 mph from Southeast

Location: Rio De Janeiro Airport

Current Time: Mar 1, 2015 at 12:21:52 PM

Latest Report: Mar 1, 2015 at 12:00 PM


Visibility: N/A

Pressure: 30.07 "Hg

Humidity: 59%

Dew point: 72 °F

Location of NiteróiLocation

Historic Weather in Niterói — Graph

°F

Niterói temperature yesterday

Maximum temperature yesterday: 93 °F (at 12:00 PM)
Minimum temperature yesterday: 77 °F (at 6:00 AM)
Average temperature yesterday: 84 °F

Past Weeks' High & Low Weather Summary

 TemperatureHumidityPressure
High102 °F (Feb 20, 1:00 PM)94% (Feb 15, 11:00 PM)30.07 "Hg (Feb 15, 11:00 PM)
Low73 °F (Feb 15, 9:00 PM)35% (Feb 20, 1:00 PM)29.74 "Hg (Feb 15, 5:00 PM)
Average85 °F70%29.91 "Hg
* Reported Feb 14 12:00 Noon — Mar 1 11:00 AM, Niterói, Weather by CustomWeather, © 2015

Note: Actual official high and low records may vary slightly from our data, if they occured in-between our weather recording intervals... More about our weather records

Advertising

Niterói weather history for previous 24 hours

 ConditionsComfort  
Time TempWeatherWind HumidityBarometerVisibility
11:00 AM
Sun, Mar 1
88 °FScattered clouds.13 mph59%30.07 "HgN/A
10:00 AM88 °FScattered clouds.12 mph55%30.07 "HgN/A
9:00 AM86 °FScattered clouds.1 mph55%30.07 "HgN/A
8:00 AM84 °FPassing clouds.2 mph70%30.07 "HgN/A
7:00 AM81 °FPassing clouds.2 mph79%30.04 "HgN/A
6:00 AM73 °FPassing clouds.3 mph89%30.01 "HgN/A
11:00 PM
Sat, Feb 28
79 °FPassing clouds.7 mph79%30.01 "HgN/A
10:00 PM79 °FPassing clouds.9 mph84%30.01 "HgN/A
9:00 PM81 °FPassing clouds.14 mph74%29.98 "HgN/A
8:00 PM79 °FPassing clouds.10 mph84%29.95 "HgN/A
7:00 PM79 °FPassing clouds.10 mph84%29.95 "HgN/A
6:00 PM81 °FPassing clouds.12 mph84%29.92 "HgN/A
5:00 PM82 °FPartly sunny.18 mph74%29.89 "HgN/A
4:00 PM84 °FScattered clouds.21 mph74%29.89 "HgN/A
3:00 PM86 °FPartly sunny.23 mph70%29.86 "HgN/A
2:00 PM90 °FScattered clouds.15 mph59%29.89 "HgN/A
1:00 PM93 °FScattered clouds.18 mph56%29.89 "HgN/A
12:00 PM93 °FScattered clouds.14 mph56%29.89 "HgN/A
Weather by CustomWeather, © 2015

See weather overviewHow to use our weather pages